This demonstration page uses our WeatherBlox Daily Observations layout. Learn more.

Hourly Observations for August 19, 2016

Temp ( °F °C ) Dew Point ( °F °C ) Humidity (%) Winds ( mph kmh ) Pressure ( in mb ) Visibility ( mi km ) Precip ( " mm )
12:54 am 00:54 Clear 75 23.9 68 20 79 79 S 10 17 29.87 1012 10 16.0934 0 0
1:54 am 01:54 Clear 73 22.8 68 20 84 84 S 8 13 29.87 1011 10 16.0934 0 0
2:54 am 02:54 Clear 73 22.8 67 19.4 81 81 S 8 13 29.85 1011 10 16.0934 0 0
3:54 am 03:54 Clear 74 23.3 67 19.4 79 79 VRB 3 6 29.87 1012 10 16.0934 0 0
4:54 am 04:54 Clear 72 22.2 68 20 87 87 SSE 3 6 29.86 1011 10 16.0934 0 0
5:54 am 05:54 Clear 71 21.7 67 19.4 87 87 Calm 29.86 1011 10 16.0934 0 0
6:54 am 06:54 Sunny 70 21.1 67 19.4 90 90 SSE 6 9 29.86 1011 10 16.0934 0 0
7:54 am 07:54 Sunny 73 22.8 68 20 84 84 SSE 7 11 29.85 1011 10 16.0934 0 0
8:54 am 08:54 Sunny 75 23.9 69 20.6 82 82 S 7 11 29.84 1010 10 16.0934 0 0
9:54 am 09:54 Sunny 78 25.6 69 20.6 74 74 SSE 8 13 29.83 1010 10 16.0934 0 0
10:54 am 10:54 Sunny 81 27.2 71 21.7 72 72 VRB 6 9 29.83 1010 10 16.0934 0 0
11:54 am 11:54 Mostly Cloudy 80 26.7 70 21.1 71 71 W 10 17 29.83 1010 10 16.0934 0 0
12:24 pm 12:24 Partly Cloudy 82 28 72 22 70 70 N 6 9 29.8 1009 10 16.0934 0 0
12:54 pm 12:54 Sunny 82 27.8 70 21.1 67 67 Calm 29.81 1010 10 16.0934 0 0
1:27 pm 13:27 Cloudy 81 27.2 70 21.1 69 69 W 5 7 29.8 1009 10 16.0934 0 0
1:54 pm 13:54 Cloudy 82 27.8 71 21.7 69 69 WSW 6 9 29.81 1010 10 16.0934 0 0
2:54 pm 14:54 Mostly Cloudy 82 27.8 70 21.1 67 67 NNW 15 24 29.77 1008 10 16.0934 0 0
3:32 pm 15:32 Cloudy 79 26 68 20 70 70 N 16 26 29.77 1008 10 16.0934 0 0
3:54 pm 15:54 Cloudy 77 25 67 19.4 71 71 NNW 17 28 29.79 1009 10 16.0934 0 0
4:06 pm 16:06 Partly Cloudy 75 24 66 19 74 74 NNW 16 26 29.77 1008 10 16.0934 0 0
4:54 pm 16:54 Cloudy with Nearby Thunderstorms 74 23.3 68 20 82 82 N 6 9 29.81 1010 10 16.0934 0 0.0254
5:06 pm 17:06 Cloudy with Thunderstorms 74 23.3 69 20.6 85 85 WNW 12 19 29.8 1009 4 6.43736 0.02 0.508
5:16 pm 17:16 Cloudy with Thunderstorms 72 22 70 21 94 94 NW 12 19 29.8 1009 2.5 4.02335 0 0
5:26 pm 17:26 Cloudy with Light Thunderstorms 72 22 70 21 94 94 NW 7 11 29.8 1009 4 6.43736 0 0
5:40 pm 17:40 Mostly Cloudy with Nearby Thunderstorms 71 21.7 69 20.6 94 94 N 3 6 29.77 1008 5 8.0467 0.16 4.064
5:49 pm 17:49 Mostly Cloudy with Light Rain 72 22 70 21 94 94 ENE 7 11 29.74 1007 5 8.0467 0.18 4.572
5:54 pm 17:54 Mostly Cloudy with Nearby Thunderstorms 71 21.7 69 20.6 94 94 ENE 6 9 29.78 1009 5 8.0467 0.19 4.826
6:27 pm 18:27 Mostly Cloudy with Light Rain 72 22 70 21 94 94 ESE 7 11 29.74 1007 6 9.65604 0 0
6:54 pm 18:54 Mostly Cloudy with Light Rain 71 21.7 69 20.6 94 94 N 8 13 29.79 1009 8 12.87472 0.05 1.27
7:03 pm 19:03 Cloudy with Light Rain 72 22 70 21 94 94 NNE 8 13 29.77 1008 9 14.48406 0 0
7:12 pm 19:12 Cloudy 72 22 70 21 94 94 N 7 11 29.74 1007 9 14.48406 0 0
7:54 pm 19:54 Cloudy 71 21.7 69 20.6 94 94 N 7 11 29.8 1009 10 16.0934 0 0.0254
8:19 pm 20:19 Mostly Cloudy with Light Rain 71 21.7 69 20.6 94 94 N 6 9 29.77 1008 8 12.87472 0 0.0254
8:54 pm 20:54 Mostly Cloudy 70 21.1 69 20.6 97 97 N 7 11 29.79 1009 10 16.0934 0 0.0254
9:17 pm 21:17 Cloudy 71 21.7 70 21.1 96 96 NW 8 13 29.77 1008 9 14.48406 0 0
9:39 pm 21:39 Cloudy 71 21.7 69 20.6 94 94 NNW 17 28 29.83 1010 10 16.0934 0 0
9:54 pm 21:54 Cloudy with Light Rain 70 21.1 68 20 93 93 NNW 15 24 29.82 1010 9 14.48406 0 0.0254
10:10 pm 22:10 Cloudy 70 21 66 19 88 88 NNW 17 28 29.83 1010 10 16.0934 0 0
10:35 pm 22:35 Cloudy 70 21 66 19 88 88 NNW 14 22 29.85 1011 10 16.0934 0 0
10:54 pm 22:54 Cloudy 69 20.6 65 18.3 87 87 N 15 24 29.84 1011 10 16.0934 0 0.0254
11:32 pm 23:32 Cloudy 70 21 64 18 83 83 N 10 17 29.85 1011 10 16.0934 0 0
11:54 pm 23:54 Cloudy 68 20 64 17.8 87 87 NNW 9 15 29.84 1011 10 16.0934 0 0

Powered by AerisWeather